Вернуться в каталог

STARLINK-35628

АктивенСвязьVLEO
NORAD 66123·PAYLOAD·🇺🇸 United States

Запущен Oct 22, 2025 с Vandenberg Space Force Base

Loading…

Ближайшие Пролёты (ближайшие 24 часа)

TLE

СвежийSource: CelesTrak SupGP

Эпоха: Sep 15, 2026, 03:33 UTC

1 66123C 25237K   26258.14840278 -.00055678  00000+0 -16450-2 0  2582
2 66123  53.1574 236.6414 0001415  94.6832 110.0478 15.34419361    13

Отслеживайте STARLINK-35628 в реальном времени с AllMySat

Download on the App Store